Weather Roundup
Issued by NWS Springfield, MO

Home | Current Version | Previous Version | Text Only | Print | Product List | Glossary On
Versions: 1 2 3 4 5 6 7 8 9 10 11 12 13 14 15 16 17 18 19 20 21 22 23 24 25 26 27 28 29 30 31 32 33 34 35 36 37 38 39 40 41 42 43 44 45 46 47 48 49 50
000
NZUS99 KSGF 050510
HRRSGF

HOURLY WEATHER
NATIONAL WEATHER SERVICE SPRINGFIELD MO
1200 AM CDT SAT SEP 05 2015

......SGF CWA......

CITY           SKY/WX    TMP DP  RH WIND       PRES   REMARKS
SPRINGFIELD    CLEAR     77  67  71 S9        30.03S
JOPLIN         CLEAR     79  69  71 SE7       30.00S
WEST PLAINS    CLEAR     70  67  90 CALM      30.09R
ROLLA          CLEAR     75  68  78 SE9       30.05R
OSAGE BEACH    CLEAR     73  68  83 CALM      30.04R
BRANSON        CLEAR     75  68  78 SE3       30.06S

......SURROUNDING SGF CWA......

CITY           SKY/WX    TMP DP  RH WIND       PRES   REMARKS
CHANUTE        CLEAR     75  70  84 SE7       29.98S
PARSONS        CLEAR     77  71  82 SE3       29.99S
COFFEYVILLE    CLEAR     76  70  82 SE5       29.97S
EMPORIA        CLEAR     76  69  79 SE10      29.97S
GROVE OK       CLEAR     73  72  94 CALM      30.00S
ROGERS AR      CLEAR     76  72  87 E7        30.04S
SILOAM SPRINGS PTCLDY    75  64  69 E6        30.01S
HARRISON AR    CLEAR     74  68  81 S3        30.06S
NEAR YELLVILLE CLEAR     73  64  73 CALM      30.02R

......KANSAS AND MISSOURI......

CITY           SKY/WX    TMP DP  RH WIND       PRES   REMARKS
KANSAS CTY INT CLEAR     73  68  84 S8        29.98S
DOWNTOWN KC    CLEAR     80  69  69 S6        29.97S
COLUMBIA       CLEAR     76  70  82 SE6       30.03S
SEDALIA        CLEAR     74  69  85 S7        30.03R
ST JOSEPH      CLEAR     73  68  84 S3        29.97R
ST LOUIS       CLEAR     84  68  58 S6        30.05R
SPIRIT OF STL  CLEAR     72  71  97 CALM      30.03S
KIRKSVILLE     CLEAR     73  67  81 S6        30.03R
WICHITA        CLEAR     78  69  73 S9        29.95R
TOPEKA         CLEAR     79  69  71 S10       29.96S
OLATHE         CLEAR     74  69  85 S5        29.99R

......TENNESSEE......

CITY           SKY/WX    TMP DP  RH WIND       PRES   REMARKS
MEMPHIS        PTCLDY    81  72  74 CALM      30.02S
NASHVILLE      CLEAR     75  67  76 CALM      30.06S

......ARKANSAS.......

CITY           SKY/WX    TMP DP  RH WIND       PRES   REMARKS
FAYETTEVILLE   CLEAR     69  69 100 CALM      30.03S
FT SMITH       CLEAR     79  71  76 E5        29.97S
LITTLE ROCK    CLEAR     81  69  67 CALM      30.00S

......OKLAHOMA.......

CITY           SKY/WX    TMP DP  RH WIND       PRES   REMARKS
TULSA          PTCLDY    80  72  76 SE6       29.95S
PONCA CITY     CLEAR     82  69  64 SE13      29.94S
MCALESTER      CLEAR     78  71  79 E5        29.97S
OKLAHOMA CITY  PTCLDY    76  68  76 SE7       29.96S

......IOWA............

CITY           SKY/WX    TMP DP  RH WIND       PRES   REMARKS
DES MOINES     CLOUDY    79  70  74 S8        29.96F
QUAD CITIES    CLEAR     76  69  79 CALM      30.01S

......ILLINOIS........

CITY           SKY/WX    TMP DP  RH WIND       PRES   REMARKS
QUINCY         CLEAR     78  70  76 S7        30.03R
CHICAGO        PTCLDY    71  67  87 SE5       30.05F



USA.gov is the U.S. government's official web portal to all federal, state and local government web resources and services.